Location: De Greiden
(52.9496°N, 5.9137°E)
Time: 23:15:05
(UTC+00:00)

Cosmos 1844 Rocket - Visible Passes

Search period start: 05 May 2021 00:00
Search period end: 15 May 2021 00:00
Orbit: 825 x 844 km, 71.0° (Epoch: 05 May)

Date Brightness Start Highest point End Pass type
(mag) Time Alt. Az. Time Alt. Az. Time Alt. Az.
05 May 5.4 00:13:49 10° NW 00:17:02 15° NNW 00:20:17 10° NNE visible
05 May 5.6 02:01:06 10° NNW 02:03:30 13° N 02:05:55 10° NNE visible
05 May 2.9 20:24:47 10° S 20:30:08 49° ESE 20:35:30 10° NE visible
05 May 4.0 22:08:57 10° WSW 22:14:10 40° NW 22:19:28 10° NNE visible
05 May 5.4 23:56:21 10° WNW 23:59:42 16° NNW 00:03:03 10° NNE visible
06 May 5.7 01:43:48 10° NNW 01:46:08 12° N 01:48:29 10° NNE visible
06 May 3.0 20:07:39 10° S 20:12:55 46° ESE 20:18:14 10° NE visible
06 May 3.9 21:51:37 10° WSW 21:56:54 42° NW 22:02:14 10° NNE visible
06 May 5.4 23:38:54 10° WNW 23:42:21 16° NNW 23:45:49 10° NNE visible
07 May 5.7 01:26:30 10° NNW 01:28:47 12° N 01:31:04 10° NNE visible
07 May 5.4 03:10:38 10° NNW 03:14:58 22° NNE 03:19:16 10° E visible
07 May 3.1 19:50:31 10° S 19:55:43 42° ESE 20:00:58 10° NE visible
07 May 3.8 21:34:17 10° WSW 21:39:38 45° NW 21:45:01 10° NNE visible
07 May 5.5 23:21:27 10° WNW 23:25:01 17° NNW 23:28:36 10° NNE visible
08 May 5.8 01:09:10 10° NNW 01:11:25 12° N 01:13:40 10° NNE visible
08 May 5.5 02:53:25 10° NNW 02:57:38 21° NNE 03:01:51 10° E visible
08 May 3.7 21:16:58 10° SW 21:22:21 48° NW 21:27:47 10° NNE visible
08 May 5.5 23:04:01 10° WNW 23:07:41 17° NNW 23:11:22 10° NNE visible
09 May 5.8 00:51:50 10° NNW 00:54:04 12° N 00:56:17 10° NNE visible
09 May 5.5 02:36:11 10° NNW 02:40:19 20° NNE 02:44:26 10° ENE visible
09 May 3.6 20:59:40 10° SW 21:05:05 51° NW 21:10:34 10° NNE visible
09 May 5.5 22:46:34 10° WNW 22:50:21 18° NNW 22:54:09 10° NNE visible
10 May 5.9 00:34:30 10° NNW 00:36:42 12° N 00:38:54 10° NNE visible
10 May 5.6 02:18:58 10° NNW 02:22:59 19° NNE 02:27:00 10° ENE visible
10 May 3.5 20:42:22 10° SW 20:47:50 54° NW 20:53:20 10° NNE visible
10 May 5.5 22:29:08 10° WNW 22:33:01 19° NNW 22:36:55 10° NNE visible
11 May 5.9 00:17:08 10° NNW 00:19:20 12° N 00:21:32 10° NNE visible
11 May 5.6 02:01:45 10° NNW 02:05:39 19° NNE 02:09:34 10° ENE visible
11 May 3.4 20:25:04 10° SW 20:30:33 58° NW 20:36:07 10° NNE visible
11 May 5.5 22:11:41 10° WNW 22:15:41 19° NNW 22:19:41 10° NNE visible
11 May 6.0 23:59:45 10° NNW 00:01:58 12° N 00:04:11 10° NNE visible
12 May 5.7 01:44:31 10° NNW 01:48:19 18° NNE 01:52:07 10° ENE visible
12 May 3.3 20:07:46 10° SW 20:13:18 62° NW 20:18:53 10° NNE visible
12 May 5.5 21:54:15 10° WNW 21:58:21 20° NNW 22:02:28 10° NNE visible
12 May 6.0 23:42:23 10° NNW 23:44:36 12° N 23:46:50 10° NNE visible
13 May 5.8 01:27:17 10° NNW 01:30:59 17° NNE 01:34:41 10° ENE visible
13 May 5.5 21:36:50 10° W 21:41:02 21° NNW 21:45:15 10° NNE visible
13 May 6.1 23:24:58 10° NNW 23:27:15 12° N 23:29:30 10° NNE visible
14 May 5.8 01:10:03 10° NNW 01:13:39 17° NNE 01:17:14 10° ENE visible
14 May 4.1 02:53:38 10° NNW 02:59:02 45° NE 03:04:27 10° ESE visible
14 May 5.4 21:19:24 10° W 21:23:42 22° NNW 21:28:02 10° NNE visible
14 May 6.1 23:07:34 10° NNW 23:09:52 12° N 23:12:11 10° NNE visible
